Time,TemperatureF,DewpointF,PressureIn,WindDirection,WindDirectionDegrees,WindSpeedMPH,WindSpeedGustMPH,Humidity,HourlyPrecipIn,Conditions,Clouds,dailyrainin,SoftwareType,DateUTC
2013-02-22 00:01:00,39.0,36.0,29.83,SW,230,0.0,-999.0,88,-99.99,,,-99.99,,2013-02-22 06:01:00,
2013-02-22 00:11:00,39.0,36.0,29.83,SW,230,0.0,-999.0,88,-99.99,,,-99.99,,2013-02-22 06:11:00,
2013-02-22 00:21:00,39.0,36.0,29.83,SSW,207,0.0,-999.0,88,-99.99,,,-99.99,,2013-02-22 06:21:00,
2013-02-22 00:31:00,39.0,36.0,29.83,South,191,0.0,-999.0,89,-99.99,,,-99.99,,2013-02-22 06:31:00,
2013-02-22 00:42:00,39.0,36.0,29.83,South,191,0.0,-999.0,89,-99.99,,,-99.99,,2013-02-22 06:42:00,
2013-02-22 00:52:00,39.0,36.0,29.83,SW,229,1.0,-999.0,89,-99.99,,,-99.99,,2013-02-22 06:52:00,
2013-02-22 01:01:00,39.0,36.0,29.83,SW,230,1.0,-999.0,89,-99.99,,,-99.99,,2013-02-22 07:01:00,
2013-02-22 01:11:00,39.0,36.0,29.85,SW,221,1.0,-999.0,89,-99.99,,,-99.99,,2013-02-22 07:11:00,
2013-02-22 01:21:00,39.0,36.0,29.85,SW,221,1.0,-999.0,89,-99.99,,,-99.99,,2013-02-22 07:21:00,
2013-02-22 01:31:00,38.0,35.0,29.85,SW,234,2.0,-999.0,89,-99.99,,,-99.99,,2013-02-22 07:31:00,
2013-02-22 01:42:00,37.0,34.0,29.85,WSW,240,2.0,-999.0,89,-99.99,,,-99.99,,2013-02-22 07:42:00,
2013-02-22 01:52:00,37.0,34.0,29.85,WSW,240,2.0,-999.0,89,-99.99,,,-99.99,,2013-02-22 07:52:00,
2013-02-22 02:01:00,37.0,34.0,29.85,SW,225,2.0,-999.0,90,-99.99,,,-99.99,,2013-02-22 08:01:00,
2013-02-22 02:11:00,36.0,34.0,29.85,SW,233,2.0,-999.0,91,-99.99,,,-99.99,,2013-02-22 08:11:00,
2013-02-22 02:21:00,36.0,34.0,29.85,SW,233,2.0,-999.0,91,-99.99,,,-99.99,,2013-02-22 08:21:00,
2013-02-22 02:31:00,36.0,34.0,29.85,SSW,212,3.0,-999.0,91,-99.99,,,-99.99,,2013-02-22 08:31:00,
2013-02-22 02:41:00,36.0,34.0,29.85,SSW,212,3.0,-999.0,91,-99.99,,,-99.99,,2013-02-22 08:41:00,
2013-02-22 02:52:00,36.0,34.0,29.86,SW,214,2.0,-999.0,92,-99.99,,,-99.99,,2013-02-22 08:52:00,
2013-02-22 03:03:00,36.0,34.0,29.86,SSW,211,3.0,-999.0,92,-99.99,,,-99.99,,2013-02-22 09:03:00,
2013-02-22 03:11:00,35.0,33.0,29.87,SSW,203,3.0,-999.0,93,-99.99,,,-99.99,,2013-02-22 09:11:00,
2013-02-22 03:21:00,35.0,33.0,29.87,SSW,203,3.0,-999.0,93,-99.99,,,-99.99,,2013-02-22 09:21:00,
2013-02-22 03:32:00,35.0,33.0,29.88,WSW,240,2.0,-999.0,93,-99.99,,,-99.99,,2013-02-22 09:32:00,
2013-02-22 03:41:00,35.0,33.0,29.90,WSW,242,5.0,-999.0,94,-99.99,,,-99.99,,2013-02-22 09:41:00,
2013-02-22 03:52:00,35.0,33.0,29.90,WSW,242,5.0,-999.0,94,-99.99,,,-99.99,,2013-02-22 09:52:00,
2013-02-22 04:01:00,35.0,33.0,29.91,SW,225,5.0,-999.0,94,-99.99,,,-99.99,,2013-02-22 10:01:00,
2013-02-22 04:11:00,34.0,32.0,29.91,WSW,240,5.0,-999.0,94,-99.99,,,-99.99,,2013-02-22 10:11:00,
2013-02-22 04:21:00,34.0,32.0,29.91,WSW,240,5.0,-999.0,94,-99.99,,,-99.99,,2013-02-22 10:21:00,
2013-02-22 04:31:00,34.0,32.0,29.91,WSW,246,4.0,-999.0,94,-99.99,,,-99.99,,2013-02-22 10:31:00,
2013-02-22 04:42:00,34.0,32.0,29.91,WSW,246,4.0,-999.0,94,-99.99,,,-99.99,,2013-02-22 10:42:00,
2013-02-22 04:52:00,34.0,33.0,29.93,SW,229,4.0,-999.0,95,-99.99,,,-99.99,,2013-02-22 10:52:00,
2013-02-22 05:01:00,33.0,32.0,29.92,WSW,254,5.0,-999.0,95,-99.99,,,-99.99,,2013-02-22 11:01:00,
2013-02-22 05:11:00,33.0,32.0,29.93,SW,228,3.0,-999.0,95,-99.99,,,-99.99,,2013-02-22 11:11:00,
2013-02-22 05:21:00,33.0,32.0,29.93,SW,228,3.0,-999.0,95,-99.99,,,-99.99,,2013-02-22 11:21:00,
2013-02-22 05:32:00,34.0,33.0,29.94,SW,236,1.0,-999.0,95,-99.99,,,-99.99,,2013-02-22 11:32:00,
2013-02-22 05:42:00,34.0,33.0,29.94,SW,236,1.0,-999.0,95,-99.99,,,-99.99,,2013-02-22 11:42:00,
2013-02-22 05:52:00,33.0,32.0,29.93,WSW,257,3.0,-999.0,95,-99.99,,,-99.99,,2013-02-22 11:52:00,
2013-02-22 06:02:00,33.0,32.0,29.94,WSW,249,3.0,-999.0,95,-99.99,,,-99.99,,2013-02-22 12:02:00,
2013-02-22 06:11:00,33.0,32.0,29.94,WSW,249,3.0,-999.0,95,-99.99,,,-99.99,,2013-02-22 12:11:00,
2013-02-22 06:21:00,33.0,32.0,29.94,SW,222,2.0,-999.0,95,-99.99,,,-99.99,,2013-02-22 12:21:00,
2013-02-22 06:32:00,33.0,32.0,29.94,SSW,213,1.0,-999.0,95,-99.99,,,-99.99,,2013-02-22 12:32:00,
2013-02-22 06:42:00,33.0,32.0,29.94,SSW,213,1.0,-999.0,95,-99.99,,,-99.99,,2013-02-22 12:42:00,
2013-02-22 06:52:00,33.0,32.0,29.95,SSW,203,1.0,-999.0,96,-99.99,,,-99.99,,2013-02-22 12:52:00,
2013-02-22 07:01:00,33.0,32.0,29.96,SSW,209,0.0,-999.0,96,-99.99,,,-99.99,,2013-02-22 13:01:00,
2013-02-22 07:11:00,33.0,32.0,29.96,SSW,209,0.0,-999.0,96,-99.99,,,-99.99,,2013-02-22 13:11:00,
2013-02-22 07:22:00,33.0,32.0,29.97,SSW,211,0.0,-999.0,96,-99.99,,,-99.99,,2013-02-22 13:22:00,
2013-02-22 07:32:00,33.0,32.0,29.98,SSW,200,1.0,-999.0,96,-99.99,,,-99.99,,2013-02-22 13:32:00,
2013-02-22 07:42:00,33.0,32.0,29.98,SSW,200,1.0,-999.0,96,-99.99,,,-99.99,,2013-02-22 13:42:00,
2013-02-22 07:52:00,33.0,32.0,29.98,SSW,192,3.0,-999.0,96,-99.99,,,-99.99,,2013-02-22 13:52:00,
2013-02-22 08:01:00,34.0,33.0,29.99,SW,223,4.0,-999.0,96,-99.99,,,-99.99,,2013-02-22 14:01:00,
2013-02-22 08:11:00,34.0,33.0,30.00,WSW,250,3.0,-999.0,96,-99.99,,,-99.99,,2013-02-22 14:11:00,
2013-02-22 08:21:00,34.0,33.0,30.00,WSW,250,3.0,-999.0,96,-99.99,,,-99.99,,2013-02-22 14:21:00,
2013-02-22 08:32:00,34.0,33.0,30.00,WSW,250,2.0,-999.0,96,-99.99,,,-99.99,,2013-02-22 14:32:00,
2013-02-22 08:42:00,35.0,34.0,30.01,WSW,239,4.0,-999.0,96,-99.99,,,-99.99,,2013-02-22 14:42:00,
2013-02-22 08:53:00,35.0,34.0,30.01,WSW,239,4.0,-999.0,96,-99.99,,,-99.99,,2013-02-22 14:53:00,
2013-02-22 09:01:00,35.0,34.0,30.02,SW,228,5.0,-999.0,96,-99.99,,,-99.99,,2013-02-22 15:01:00,
2013-02-22 09:11:00,35.0,34.0,30.03,SW,230,8.0,-999.0,96,-99.99,,,-99.99,,2013-02-22 15:11:00,
2013-02-22 09:21:00,35.0,34.0,30.03,SW,230,8.0,-999.0,96,-99.99,,,-99.99,,2013-02-22 15:21:00,
2013-02-22 09:32:00,35.0,34.0,30.02,SSW,213,7.0,-999.0,96,-99.99,,,-99.99,,2013-02-22 15:32:00,
2013-02-22 09:41:00,35.0,34.0,30.02,SSW,213,7.0,-999.0,96,-99.99,,,-99.99,,2013-02-22 15:41:00,
2013-02-22 09:52:00,35.0,34.0,30.03,WSW,252,7.0,-999.0,96,-99.99,,,-99.99,,2013-02-22 15:52:00,
2013-02-22 10:01:00,36.0,35.0,30.03,SW,229,7.0,-999.0,96,-99.99,,,-99.99,,2013-02-22 16:01:00,
2013-02-22 10:12:00,36.0,35.0,30.04,SW,236,7.0,-999.0,96,-99.99,,,-99.99,,2013-02-22 16:12:00,
2013-02-22 10:21:00,36.0,35.0,30.04,SW,236,7.0,-999.0,96,-99.99,,,-99.99,,2013-02-22 16:21:00,
2013-02-22 10:31:00,36.0,35.0,30.04,SW,221,7.0,-999.0,96,-99.99,,,-99.99,,2013-02-22 16:31:00,
2013-02-22 10:42:00,36.0,35.0,30.04,SW,221,7.0,-999.0,96,-99.99,,,-99.99,,2013-02-22 16:42:00,
2013-02-22 10:52:00,36.0,35.0,30.04,SW,229,9.0,-999.0,96,-99.99,,,-99.99,,2013-02-22 16:52:00,
2013-02-22 11:01:00,36.0,35.0,30.04,SSW,208,7.0,-999.0,96,-99.99,,,-99.99,,2013-02-22 17:01:00,
2013-02-22 11:11:00,37.0,36.0,30.03,SW,229,6.0,-999.0,96,-99.99,,,-99.99,,2013-02-22 17:11:00,
2013-02-22 11:21:00,37.0,36.0,30.03,SW,229,6.0,-999.0,96,-99.99,,,-99.99,,2013-02-22 17:21:00,
2013-02-22 11:31:00,37.0,36.0,30.03,SSW,205,7.0,-999.0,96,-99.99,,,-99.99,,2013-02-22 17:31:00,
2013-02-22 11:42:00,37.0,36.0,30.03,SSW,205,7.0,-999.0,96,-99.99,,,-99.99,,2013-02-22 17:42:00,
2013-02-22 11:52:00,38.0,37.0,30.03,SSW,213,6.0,-999.0,96,-99.99,,,-99.99,,2013-02-22 17:52:00,
2013-02-22 12:01:00,38.0,37.0,30.03,SW,229,8.0,-999.0,95,-99.99,,,-99.99,,2013-02-22 18:01:00,
2013-02-22 12:12:00,38.0,36.0,30.03,SW,227,5.0,-999.0,92,-99.99,,,-99.99,,2013-02-22 18:12:00,
2013-02-22 12:22:00,38.0,36.0,30.03,SW,227,5.0,-999.0,92,-99.99,,,-99.99,,2013-02-22 18:22:00,
2013-02-22 12:32:00,38.0,35.0,30.03,SSW,211,6.0,-999.0,90,-99.99,,,-99.99,,2013-02-22 18:32:00,
2013-02-22 12:42:00,38.0,35.0,30.03,SSW,211,6.0,-999.0,90,-99.99,,,-99.99,,2013-02-22 18:42:00,
2013-02-22 12:52:00,39.0,35.0,30.03,SW,229,6.0,-999.0,87,-99.99,,,-99.99,,2013-02-22 18:52:00,
2013-02-22 13:01:00,39.0,35.0,30.03,SW,215,5.0,-999.0,86,-99.99,,,-99.99,,2013-02-22 19:01:00,
2013-02-22 13:11:00,40.0,36.0,30.02,South,187,4.0,-999.0,84,-99.99,,,-99.99,,2013-02-22 19:11:00,
2013-02-22 13:21:00,40.0,36.0,30.02,South,187,4.0,-999.0,84,-99.99,,,-99.99,,2013-02-22 19:21:00,
2013-02-22 13:31:00,40.0,35.0,30.01,SSW,207,5.0,-999.0,83,-99.99,,,-99.99,,2013-02-22 19:31:00,
2013-02-22 13:41:00,41.0,36.0,30.01,WSW,241,4.0,-999.0,81,-99.99,,,-99.99,,2013-02-22 19:41:00,
2013-02-22 13:52:00,41.0,36.0,30.01,WSW,241,4.0,-999.0,81,-99.99,,,-99.99,,2013-02-22 19:52:00,
2013-02-22 14:01:00,41.0,35.0,30.01,SSW,210,5.0,-999.0,80,-99.99,,,-99.99,,2013-02-22 20:01:00,
2013-02-22 14:11:00,41.0,35.0,30.01,SSW,210,5.0,-999.0,80,-99.99,,,-99.99,,2013-02-22 20:11:00,
2013-02-22 14:21:00,41.0,35.0,30.00,WSW,248,4.0,-999.0,80,-99.99,,,-99.99,,2013-02-22 20:21:00,
2013-02-22 14:31:00,42.0,36.0,30.00,SW,215,2.0,-999.0,79,-99.99,,,-99.99,,2013-02-22 20:31:00,
2013-02-22 14:41:00,42.0,36.0,30.00,SW,215,2.0,-999.0,79,-99.99,,,-99.99,,2013-02-22 20:41:00,
2013-02-22 14:52:00,42.0,36.0,29.99,SSW,207,3.0,-999.0,79,-99.99,,,-99.99,,2013-02-22 20:52:00,
2013-02-22 15:01:00,42.0,36.0,29.99,SW,223,3.0,-999.0,79,-99.99,,,-99.99,,2013-02-22 21:01:00,
2013-02-22 15:11:00,42.0,36.0,29.98,WSW,241,4.0,-999.0,78,-99.99,,,-99.99,,2013-02-22 21:11:00,
2013-02-22 15:21:00,42.0,36.0,29.98,WSW,241,4.0,-999.0,78,-99.99,,,-99.99,,2013-02-22 21:21:00,
2013-02-22 15:32:00,43.0,36.0,29.98,SW,236,3.0,-999.0,76,-99.99,,,-99.99,,2013-02-22 21:32:00,
2013-02-22 15:42:00,43.0,36.0,29.98,SW,236,3.0,-999.0,76,-99.99,,,-99.99,,2013-02-22 21:42:00,
2013-02-22 15:52:00,44.0,36.0,29.99,WSW,255,4.0,-999.0,72,-99.99,,,-99.99,,2013-02-22 21:52:00,
2013-02-22 16:01:00,44.0,35.0,29.98,WSW,257,3.0,-999.0,71,-99.99,,,-99.99,,2013-02-22 22:01:00,
2013-02-22 16:11:00,44.0,35.0,29.98,WSW,257,3.0,-999.0,71,-99.99,,,-99.99,,2013-02-22 22:11:00,
2013-02-22 16:21:00,43.0,34.0,29.98,South,188,4.0,-999.0,70,-99.99,,,-99.99,,2013-02-22 22:21:00,
2013-02-22 16:31:00,43.0,34.0,29.99,SW,236,2.0,-999.0,71,-99.99,,,-99.99,,2013-02-22 22:31:00,
2013-02-22 16:41:00,43.0,34.0,29.99,SW,236,2.0,-999.0,71,-99.99,,,-99.99,,2013-02-22 22:41:00,
2013-02-22 16:52:00,43.0,34.0,29.98,WSW,241,4.0,-999.0,71,-99.99,,,-99.99,,2013-02-22 22:52:00,
2013-02-22 17:01:00,43.0,35.0,29.98,SW,234,3.0,-999.0,72,-99.99,,,-99.99,,2013-02-22 23:01:00,
2013-02-22 17:11:00,43.0,35.0,29.98,SW,234,3.0,-999.0,72,-99.99,,,-99.99,,2013-02-22 23:11:00,
2013-02-22 17:21:00,44.0,36.0,29.99,SW,221,3.0,-999.0,73,-99.99,,,-99.99,,2013-02-22 23:21:00,
2013-02-22 17:31:00,44.0,33.0,30.00,WNW,283,3.0,-999.0,64,-99.99,,,-99.99,,2013-02-22 23:31:00,
2013-02-22 17:41:00,44.0,33.0,30.00,WNW,283,3.0,-999.0,64,-99.99,,,-99.99,,2013-02-22 23:41:00,
2013-02-22 17:52:00,43.0,33.0,30.00,WNW,299,3.0,-999.0,67,-99.99,,,-99.99,,2013-02-22 23:52:00,
2013-02-22 18:01:00,42.0,32.0,30.01,WNW,289,2.0,-999.0,68,-99.99,,,-99.99,,2013-02-23 00:01:00,
2013-02-22 18:11:00,41.0,32.0,30.02,WNW,303,0.0,-999.0,70,-99.99,,,-99.99,,2013-02-23 00:11:00,
2013-02-22 18:21:00,41.0,32.0,30.02,WNW,303,0.0,-999.0,70,-99.99,,,-99.99,,2013-02-23 00:21:00,
2013-02-22 18:32:00,41.0,33.0,30.01,NW,308,0.0,-999.0,72,-99.99,,,-99.99,,2013-02-23 00:32:00,
2013-02-22 18:42:00,41.0,33.0,30.01,NW,308,0.0,-999.0,72,-99.99,,,-99.99,,2013-02-23 00:42:00,
2013-02-22 18:52:00,40.0,32.0,30.02,WNW,295,0.0,-999.0,72,-99.99,,,-99.99,,2013-02-23 00:52:00,
2013-02-22 19:01:00,39.0,30.0,30.03,WNW,290,0.0,-999.0,71,-99.99,,,-99.99,,2013-02-23 01:01:00,
2013-02-22 19:11:00,39.0,30.0,30.03,WNW,290,0.0,-999.0,71,-99.99,,,-99.99,,2013-02-23 01:11:00,
2013-02-22 19:21:00,39.0,31.0,30.03,WNW,296,1.0,-999.0,72,-99.99,,,-99.99,,2013-02-23 01:21:00,
2013-02-22 19:31:00,38.0,30.0,30.04,WNW,298,0.0,-999.0,73,-99.99,,,-99.99,,2013-02-23 01:31:00,
2013-02-22 19:41:00,38.0,30.0,30.04,WNW,298,0.0,-999.0,73,-99.99,,,-99.99,,2013-02-23 01:41:00,
2013-02-22 19:52:00,38.0,30.0,30.05,WNW,296,0.0,-999.0,74,-99.99,,,-99.99,,2013-02-23 01:52:00,
2013-02-22 20:01:00,38.0,30.0,30.04,NW,315,0.0,-999.0,74,-99.99,,,-99.99,,2013-02-23 02:01:00,
2013-02-22 20:11:00,37.0,30.0,30.05,NW,314,1.0,-999.0,75,-99.99,,,-99.99,,2013-02-23 02:11:00,
2013-02-22 20:21:00,37.0,30.0,30.05,NW,314,1.0,-999.0,75,-99.99,,,-99.99,,2013-02-23 02:21:00,
2013-02-22 20:31:00,37.0,30.0,30.06,NW,318,0.0,-999.0,75,-99.99,,,-99.99,,2013-02-23 02:31:00,
2013-02-22 20:42:00,37.0,30.0,30.06,NW,318,0.0,-999.0,75,-99.99,,,-99.99,,2013-02-23 02:42:00,
2013-02-22 20:52:00,36.0,29.0,30.07,NW,319,1.0,-999.0,76,-99.99,,,-99.99,,2013-02-23 02:52:00,
2013-02-22 21:01:00,36.0,29.0,30.06,NNW,342,1.0,-999.0,76,-99.99,,,-99.99,,2013-02-23 03:01:00,
2013-02-22 21:11:00,35.0,28.0,30.06,North,350,1.0,-999.0,75,-99.99,,,-99.99,,2013-02-23 03:11:00,
2013-02-22 21:21:00,35.0,28.0,30.06,North,350,1.0,-999.0,75,-99.99,,,-99.99,,2013-02-23 03:21:00,
2013-02-22 21:31:00,34.0,27.0,30.07,NNW,348,1.0,-999.0,75,-99.99,,,-99.99,,2013-02-23 03:31:00,
2013-02-22 21:41:00,34.0,27.0,30.07,NNW,348,1.0,-999.0,75,-99.99,,,-99.99,,2013-02-23 03:41:00,
2013-02-22 21:52:00,34.0,27.0,30.07,NNW,334,1.0,-999.0,75,-99.99,,,-99.99,,2013-02-23 03:52:00,
2013-02-22 22:01:00,34.0,27.0,30.07,NNW,338,0.0,-999.0,76,-99.99,,,-99.99,,2013-02-23 04:01:00,
2013-02-22 22:11:00,33.0,26.0,30.08,NNW,336,0.0,-999.0,76,-99.99,,,-99.99,,2013-02-23 04:11:00,
2013-02-22 22:21:00,33.0,26.0,30.08,NNW,336,0.0,-999.0,76,-99.99,,,-99.99,,2013-02-23 04:21:00,
2013-02-22 22:31:00,33.0,27.0,30.07,NNW,336,0.0,-999.0,77,-99.99,,,-99.99,,2013-02-23 04:31:00,
2013-02-22 22:41:00,33.0,27.0,30.07,NNW,336,0.0,-999.0,77,-99.99,,,-99.99,,2013-02-23 04:41:00,
2013-02-22 22:52:00,33.0,27.0,30.07,NNW,336,0.0,-999.0,77,-99.99,,,-99.99,,2013-02-23 04:52:00,
2013-02-22 23:02:00,33.0,27.0,30.07,NNW,336,0.0,-999.0,77,-99.99,,,-99.99,,2013-02-23 05:02:00,
2013-02-22 23:12:00,33.0,27.0,30.07,NNW,336,0.0,-999.0,77,-99.99,,,-99.99,,2013-02-23 05:12:00,